Torna al catalogo

CZ-6A DEB

AttivoPO
NORAD 54611·DEBRIS·🇨🇳 China

Lanciato Nov 11, 2022 da Taiyuan Satellite Launch Center

Loading…

Prossimi Passaggi (prossime 24 ore)

TLE

AggiornatoSource: Space-Track

Epoca: Sep 12, 2026, 05:22 UTC

1 54611U 22151NM  26255.22370120  .00047654  00000-0  23064-2 0  9998
2 54611  98.6028   5.0219 0039084 223.8186 135.9942 15.17733129205024

Traccia CZ-6A DEB in tempo reale con AllMySat

Download on the App Store